Tracking 19706 objects as of 16-Jun-2019
HD Live streaming from Space Station
objects crossing your sky now

COSMOS 917 DEB


COSMOS 917 DEB is no longer on orbit


NORAD ID: 32967
Int'l Code: 1977-047Q
Perigee: N/A
Apogee: N/A
Inclination: N/A
Period: N/A
Semi major axis: N/A
RCS: N/A
Launch date: June 16, 1977
Source: Commonwealth of Independent States (former USSR) (CIS)
Launch site: PLESETSK MISSILE AND SPACE COMPLEX (PKMTR)
Decay date: 2013-10-19

Note: This is SATELLITE DEBRIS
aabbcc
Your satellite tracking list
Your tracking list is empty




NASA's NSSDC Master Catalog

Two Line Element Set (TLE):
1 32967U 77047Q   13291.60021533  .63585991  12986-4  21244+0 0  9996
2 32967 063.4894 187.7866 0482800 026.9808 335.5534 15.04856417 92258
Source of the keplerian elements: AFSPC